Bedford, MA

8:46 PM EST on January 23, 2018 (GMT -0500)
Hanscom

Weather History for KBED - February, 2013

Change the Weather History Date:

Sunday, February 10, 2013

  Actual Average Record
Temperature  
Mean Temperature 19 °F -  
Max Temperature 37 °F 36 °F 56 °F (1990)
Min Temperature 1 °F 13 °F -9 °F (1975)
Degree Days  
Heating Degree Days 46    
Moisture  
Dew Point 1 °F    
Average Humidity 51    
Maximum Humidity 92    
Minimum Humidity 16    
Precipitation  
Precipitation 0.00 in - - ()
Sea Level Pressure  
Sea Level Pressure 30.37 in    
Wind  
Wind Speed 6 mph (WNW)    
Max Wind Speed 14 mph    
Max Gust Speed 21 mph    
Visibility 10 miles    
Events      
Averages and records for this station are not official NWS values.
T = Trace of Precipitation, MM = Missing Value Source: NWS Daily Summary

Daily Weather History Graph

Daily Weather History Graph

Search for Another Location

Airport or City:

Trip Planner

Search our weather history database for the weather conditions in past years. The results will help you decide how hot, cold, wet, or windy it might be!

Date:

Astronomy

Feb. 10, 2013 Rise Set
Actual Time 6:48 AM EST 5:11 PM EST
Civil Twilight 6:19 AM EST 5:40 PM EST
Nautical Twilight 5:45 AM EST 6:13 PM EST
Astronomical Twilight 5:13 AM EST 6:46 PM EST
Moon 6:34 AM EST (2/10) 6:00 PM EST (2/10)
Length of Visible Light 11h 21m
Length of Day
10h 22m
New Moon, 0% of the Moon is Illuminated
Feb 10
New Moon
Feb 17
First Quarter
Feb 25
Full
Mar 4
Last Quarter
Mar 11
New

Hourly Weather History & Observations

Time (EST) Temp. Windchill Dew Point Humidity Pressure Visibility Wind Dir Wind Speed Gust Speed Precip Events Conditions
12:56 AM 14.0 °F -0.8 °F -0.9 °F 52% 30.26 in 10.0 mi NW 13.8 mph 20.7 mph N/A   Clear
1:56 AM 15.1 °F 1.1 °F -0.9 °F 49% 30.27 in 10.0 mi NW 12.7 mph - N/A   Clear
2:56 AM 15.1 °F 3.3 °F -0.9 °F 49% 30.28 in 10.0 mi WNW 9.2 mph - N/A   Clear
3:56 AM 12.0 °F 2.7 °F -2.0 °F 53% 30.30 in 10.0 mi WNW 5.8 mph - N/A   Clear
4:56 AM 8.1 °F - -4.0 °F 58% 30.32 in 10.0 mi Calm Calm - N/A   Clear
5:56 AM 6.1 °F - -2.9 °F 67% 30.35 in 10.0 mi Calm Calm - N/A   Clear
6:56 AM 1.0 °F -8.7 °F -5.1 °F 75% 30.38 in 10.0 mi West 4.6 mph - N/A   Clear
7:56 AM 1.0 °F -6.7 °F -5.1 °F 75% 30.41 in 10.0 mi SW 3.5 mph - N/A   Clear
8:56 AM 14.0 °F 6.5 °F -2.9 °F 47% 30.43 in 10.0 mi WSW 4.6 mph - N/A   Clear
9:56 AM 21.9 °F 17.2 °F -4.0 °F 32% 30.43 in 10.0 mi West 3.5 mph - N/A   Clear
10:56 AM 28.0 °F 20.0 °F -0.9 °F 29% 30.43 in 10.0 mi NW 8.1 mph - 0.00 in   Clear
11:56 AM 32.0 °F 24.2 °F -4.0 °F 21% 30.42 in 10.0 mi West 9.2 mph - 0.00 in   Clear
12:56 PM 35.1 °F 28.6 °F -0.0 °F 23% 30.39 in 10.0 mi NNW 8.1 mph - 0.00 in   Clear
1:56 PM 37.9 °F - -2.0 °F 18% 30.37 in 10.0 mi Calm Calm - N/A   Clear
2:56 PM 36.0 °F - -0.9 °F 21% 30.38 in 10.0 mi Calm Calm - N/A   Clear
3:56 PM 37.9 °F 35.5 °F -5.1 °F 16% 30.39 in 10.0 mi WNW 3.5 mph - N/A   Clear
4:56 PM 35.1 °F 31.0 °F 3.0 °F 26% 30.38 in 10.0 mi SW 4.6 mph - N/A   Clear
5:56 PM 23.0 °F - 10.0 °F 58% 30.39 in 10.0 mi Calm Calm - N/A   Clear
6:26 PM 23.0 °F - 6.8 °F 50% 30.34 in 10.0 mi Calm Calm - N/A   Clear
6:56 PM 19.9 °F - 9.0 °F 62% 30.41 in 10.0 mi Calm Calm - N/A   Clear
7:56 PM 17.1 °F - 8.1 °F 68% 30.41 in 10.0 mi Calm Calm - N/A   Clear
8:56 PM 16.0 °F - 9.0 °F 74% 30.41 in 10.0 mi Calm Calm - N/A   Clear
9:56 PM 8.1 °F - 3.9 °F 83% 30.40 in 10.0 mi Calm Calm - N/A   Clear
10:56 PM 9.0 °F - 5.0 °F 84% 30.40 in 10.0 mi Calm Calm - N/A   Clear
11:56 PM 8.1 °F - 6.1 °F 92% 30.40 in 10.0 mi Calm Calm - N/A   Clear